CW9086 Weather Reports


Display with metric or nautical units.
time (UTC)temp
F
wind
direction
speed
MPH
gust
MPH
rain 1hr
in
rain 24hr
in
rain mn
in
humidity
%
barometer
mb
20260505011104 58 195 2.0 3.0 0.00 0.00 0.00 80 1011.8
20260505010605 59 195 1.0 3.0 0.00 0.00 0.00 80 1011.8
20260505010106 59 195 2.0 3.0 0.00 0.00 0.00 80 1011.9
20260505005604 59 207 1.0 7.0 0.00 0.00 0.00 80 1011.9
20260505005105 59 211 0.0 7.0 0.00 0.00 0.00 79 1011.9
20260505004604 59 195 1.0 3.0 0.00 0.00 0.00 80 1011.9
20260505004104 59 195 0.0 5.0 0.00 0.00 0.00 80 1011.9
20260505003605 59 195 2.0 5.0 0.00 0.00 0.00 79 1011.9
20260505003104 60 209 1.0 5.0 0.00 0.00 0.00 80 1011.8
20260505002606 60 195 0.0 3.0 0.00 0.00 0.00 80 1011.9
20260505002104 60 195 1.0 3.0 0.00 0.00 0.00 79 1011.9
20260505001604 60 210 1.0 3.0 0.00 0.00 0.00 78 1011.9
20260505001104 60 195 1.0 3.0 0.00 0.00 0.00 78 1011.8
20260505000605 60 195 1.0 3.0 0.00 0.00 0.00 78 1011.8
20260505000104 60 195 0.0 3.0 0.00 0.00 0.00 77 1011.9
20260504235604 60 206 2.0 3.0 0.00 0.00 0.00 77 1011.8
20260504235105 61 200 1.0 5.0 0.00 0.00 0.00 77 1011.8
20260504234605 61 195 2.0 6.0 0.00 0.00 0.00 76 1011.9
20260504234104 61 195 1.0 6.0 0.00 0.00 0.00 77 1011.9
20260504233605 61 195 2.0 3.0 0.00 0.00 0.00 77 1012.0
20260504233104 61 219 1.0 6.0 0.00 0.00 0.00 77 1011.9
20260504232604 61 196 1.0 6.0 0.00 0.00 0.00 76 1011.9
20260504232106 62 209 1.0 6.0 0.00 0.00 0.00 76 1011.9
20260504231105 62 207 1.0 8.0 0.00 0.00 0.00 76 1011.9
20260504230104 62 195 2.0 8.0 0.00 0.00 0.00 76 1012.0
20260504225605 62 213 1.0 8.0 0.00 0.00 0.00 76 1012.0
20260504225104 62 199 2.0 8.0 0.00 0.00 0.00 76 1011.9
20260504224604 62 195 3.0 6.0 0.00 0.00 0.00 76 1012.0
20260504224104 62 199 2.0 5.0 0.00 0.00 0.00 75 1012.0
20260504223105 62 196 3.0 8.0 0.00 0.00 0.00 75 1012.0
20260504222605 63 195 2.0 8.0 0.00 0.00 0.00 75 1012.1
20260504222104 63 195 2.0 8.0 0.00 0.00 0.00 74 1012.2
20260504221605 63 210 1.0 8.0 0.00 0.00 0.00 74 1012.2
20260504221106 63 195 2.0 8.0 0.00 0.00 0.00 74 1012.2
20260504220105 64 203 2.0 6.0 0.00 0.00 0.00 73 1012.2
20260504215604 64 221 2.0 8.0 0.00 0.00 0.00 74 1012.3
20260504215104 64 207 1.0 8.0 0.00 0.00 0.00 73 1012.2
20260504214104 64 212 1.0 8.0 0.00 0.00 0.00 74 1012.3
20260504213604 64 196 2.0 5.0 0.00 0.00 0.00 73 1012.3
20260504211604 64 195 1.0 9.0 0.00 0.00 0.00 74 1012.3
20260504211105 64 195 2.0 8.0 0.00 0.00 0.00 72 1012.4
20260504210604 65 210 2.0 9.0 0.00 0.00 0.00 74 1012.4
20260504210104 64 195 3.0 9.0 0.00 0.00 0.00 74 1012.4
20260504205606 64 213 2.0 6.0 0.00 0.00 0.00 74 1012.4
20260504205104 64 209 1.0 5.0 0.00 0.00 0.00 74 1012.4
20260504204604 64 204 2.0 5.0 0.00 0.00 0.00 74 1012.3
20260504204104 64 204 1.0 8.0 0.00 0.00 0.00 74 1012.3
20260504203604 64 203 3.0 8.0 0.00 0.00 0.00 75 1012.3
20260504203104 64 204 3.0 5.0 0.00 0.00 0.00 74 1012.3
20260504202604 64 200 2.0 8.0 0.00 0.00 0.00 75 1012.2
20260504202104 64 195 1.0 8.0 0.00 0.00 0.00 75 1012.2
20260504201604 64 211 2.0 6.0 0.00 0.00 0.00 75 1012.2
20260504201105 64 208 1.0 8.0 0.00 0.00 0.00 74 1012.3
20260504200104 63 200 3.0 9.0 0.00 0.00 0.00 75 1012.4
20260504195605 63 204 2.0 9.0 0.00 0.00 0.00 74 1012.3
20260504195104 64 195 2.0 10.0 0.00 0.00 0.00 76 1012.4
20260504194605 63 195 3.0 10.0 0.00 0.00 0.00 76 1012.4
20260504194105 63 195 1.0 9.0 0.00 0.00 0.00 77 1012.3
20260504193604 63 204 4.0 9.0 0.00 0.00 0.00 77 1012.4
20260504193105 62 213 1.0 9.0 0.00 0.00 0.00 78 1012.4
20260504192104 62 203 2.0 9.0 0.00 0.00 0.00 76 1012.4
20260504191105 62 196 1.0 5.0 0.00 0.00 0.00 79 1012.3
20260504190104 61 212 1.0 5.0 0.00 0.00 0.00 78 1012.3
20260504185604 61 196 2.0 6.0 0.00 0.00 0.00 78 1012.3
20260504185104 61 212 1.0 8.0 0.00 0.00 0.00 78 1012.3
20260504184604 61 195 1.0 8.0 0.00 0.00 0.00 79 1012.4
20260504184104 61 195 3.0 8.0 0.00 0.00 0.00 80 1012.4
20260504183604 60 196 1.0 5.0 0.00 0.00 0.00 80 1012.4
20260504182605 60 195 3.0 9.0 0.00 0.00 0.00 80 1012.2
20260504182106 60 199 1.0 3.0 0.00 0.00 0.00 80 1012.3
20260504181606 60 210 1.0 5.0 0.00 0.00 0.00 81 1012.2
20260504181105 60 208 1.0 6.0 0.00 0.00 0.00 80 1012.2
20260504180604 60 209 1.0 6.0 0.00 0.00 0.00 81 1012.2
20260504175605 59 195 2.0 6.0 0.00 0.00 0.00 81 1012.2
20260504175104 59 202 1.0 5.0 0.00 0.00 0.00 82 1012.3
20260504174104 59 195 1.0 6.0 0.00 0.00 0.00 83 1012.2
20260504173604 59 209 1.0 8.0 0.00 0.00 0.00 83 1012.1
20260504173103 58 195 1.0 8.0 0.00 0.00 0.00 84 1012.1
20260504172604 58 200 3.0 8.0 0.00 0.00 0.00 84 1012.1
20260504172105 58 195 1.0 6.0 0.00 0.00 0.00 84 1012.1
20260504171104 57 228 1.0 6.0 0.00 0.00 0.00 84 1012.0
20260504170604 57 206 1.0 9.0 0.00 0.00 0.00 84 1011.9
20260504160104 56 195 1.0 8.0 0.00 0.00 0.00 87 1011.5
20260504151106 55 195 1.0 6.0 0.00 0.00 0.00 88 1011.3
20260504150605 55 196 2.0 6.0 0.00 0.00 0.00 88 1011.3
20260504150105 55 195 1.0 6.0 0.00 0.00 0.00 88 1011.2
20260504141104 54 195 2.0 5.0 0.00 0.00 0.00 88 1010.9
20260504140603 54 195 1.0 5.0 0.00 0.00 0.00 88 1010.9
20260504140104 54 195 1.0 5.0 0.00 0.00 0.00 88 1010.8
20260504130606 54 195 2.0 6.0 0.00 0.00 0.00 89 1010.4
20260504130104 54 195 2.0 6.0 0.00 0.00 0.00 89 1010.4
20260504120105 54 195 2.0 8.0 0.00 0.00 0.00 88 1010.1
20260504110604 54 195 2.0 9.0 0.00 0.00 0.00 88 1009.7
20260504110103 54 195 2.0 9.0 0.00 0.00 0.00 88 1009.7
20260504100604 54 198 2.0 9.0 0.00 0.00 0.00 87 1009.6
20260504100103 54 195 3.0 9.0 0.00 0.00 0.00 87 1009.5
20260504090105 54 195 1.0 5.0 0.00 0.00 0.00 86 1009.3
20260504081605 54 195 1.0 3.0 0.00 0.00 0.00 84 1009.1
20260504080606 55 195 1.0 6.0 0.00 0.00 0.00 84 1008.9
20260504080106 55 195 2.0 3.0 0.00 0.00 0.00 83 1009.0
20260504070106 55 233 1.0 3.0 0.00 0.00 0.00 80 1008.3